Blackwell, OK

1:58 PM CDT on June 25, 2017 (GMT -0500)
Blackwell

Weather History for KBKN - October, 2012

Change the Weather History Date:

Tuesday, October 30, 2012

  Actual Average (KPNC) Record (KPNC)
Temperature  
Mean Temperature 62 °F -  
Max Temperature 82 °F 66 °F 89 °F (1950)
Min Temperature 41 °F 45 °F 29 °F (1955)
Degree Days  
Heating Degree Days 4    
Growing Degree Days 12 (Base 50)    
Moisture  
Dew Point 32 °F    
Average Humidity 41    
Maximum Humidity 65    
Minimum Humidity 18    
Precipitation  
Precipitation 0.00 in - - ()
Sea Level Pressure  
Sea Level Pressure 29.95 in    
Wind  
Wind Speed 7 mph (SSW)    
Max Wind Speed 17 mph    
Max Gust Speed 28 mph    
Visibility 9 miles    
Events      
Averages and records for this station are not official NWS values.
T = Trace of Precipitation, MM = Missing Value Source: NWS Daily Summary

Daily Weather History Graph

Daily Weather History Graph

Search for Another Location

Airport or City:

Trip Planner

Search our weather history database for the weather conditions in past years. The results will help you decide how hot, cold, wet, or windy it might be!

Date:

Astronomy

Oct. 30, 2012 Rise Set
Actual Time 7:51 AM CDT 6:33 PM CDT
Civil Twilight 7:24 AM CDT 7:00 PM CDT
Nautical Twilight 6:54 AM CDT 7:31 PM CDT
Astronomical Twilight 6:24 AM CDT 8:01 PM CDT
Moon 7:06 PM CDT (10/30) 8:37 AM CDT (10/30)
Length of Visible Light 11h 35m
Length of Day
10h 42m
Full, 99% of the Moon is Illuminated
Oct 30
Full
Nov 6
Last Quarter
Nov 13
New
Nov 20
First Quarter
Nov 28
Full

Hourly Weather History & Observations

Time (CDT) Temp. Windchill Dew Point Humidity Pressure Visibility Wind Dir Wind Speed Gust Speed Precip Events Conditions
12:15 AM 46.4 °F 44.3 °F 26.6 °F 46% 30.06 in 10.0 mi SSE 4.6 mph - N/A   Clear
12:35 AM 46.4 °F 45.2 °F 26.6 °F 46% 30.06 in 10.0 mi SSE 3.5 mph - N/A   Clear
12:55 AM 46.4 °F 45.2 °F 26.6 °F 46% 30.05 in 10.0 mi SE 3.5 mph - N/A   Clear
1:15 AM 44.6 °F 43.1 °F 26.6 °F 49% 30.05 in 10.0 mi SSE 3.5 mph - N/A   Clear
1:35 AM 44.6 °F - 26.6 °F 49% 30.05 in 10.0 mi Calm Calm - N/A   Clear
1:55 AM 44.6 °F 43.1 °F 26.6 °F 49% 30.05 in 10.0 mi SE 3.5 mph - N/A   Clear
2:15 AM 41.0 °F 39.0 °F 26.6 °F 57% 30.05 in 10.0 mi ESE 3.5 mph - N/A   Clear
2:35 AM 42.8 °F - 26.6 °F 53% 30.04 in 10.0 mi Calm Calm - N/A   Clear
2:55 AM 42.8 °F - 26.6 °F 53% 30.04 in 10.0 mi Calm Calm - N/A   Clear
3:15 AM 42.8 °F - 26.6 °F 53% 30.04 in 10.0 mi Calm Calm - N/A   Clear
3:35 AM 41.0 °F 38.0 °F 26.6 °F 57% 30.04 in 10.0 mi SE 4.6 mph - N/A   Clear
3:55 AM 41.0 °F 38.0 °F 26.6 °F 57% 30.03 in 10.0 mi SE 4.6 mph - N/A   Clear
4:15 AM 41.0 °F 38.0 °F 26.6 °F 57% 30.03 in 10.0 mi ESE 4.6 mph - N/A   Mostly Cloudy
4:35 AM 41.0 °F 39.0 °F 28.4 °F 61% 30.03 in 10.0 mi ESE 3.5 mph - N/A   Overcast
5:15 AM 42.8 °F 40.1 °F 28.4 °F 57% 30.02 in 10.0 mi SE 4.6 mph - N/A   Mostly Cloudy
5:35 AM 42.8 °F 41.1 °F 28.4 °F 57% 30.02 in 10.0 mi SSE 3.5 mph - N/A   Scattered Clouds
5:55 AM 42.8 °F - 28.4 °F 57% 30.02 in 10.0 mi Calm Calm - N/A   Mostly Cloudy
6:15 AM 41.0 °F - 28.4 °F 61% 30.02 in 10.0 mi Calm Calm - N/A   Overcast
6:35 AM 42.8 °F 40.1 °F 28.4 °F 57% 30.01 in 10.0 mi South 4.6 mph - N/A   Scattered Clouds
6:55 AM 44.6 °F 41.4 °F 28.4 °F 53% 30.00 in 10.0 mi South 5.8 mph - N/A   Partly Cloudy
7:15 AM 44.6 °F 40.7 °F 28.4 °F 53% 30.00 in 10.0 mi South 6.9 mph - N/A   Mostly Cloudy
7:35 AM 41.0 °F - 28.4 °F 61% 30.00 in 10.0 mi Calm Calm - N/A   Mostly Cloudy
7:55 AM 41.0 °F 38.0 °F 28.4 °F 61% 30.00 in 10.0 mi SE 4.6 mph - N/A   Mostly Cloudy
8:15 AM 41.0 °F 38.0 °F 28.4 °F 61% 30.00 in 10.0 mi SSE 4.6 mph - N/A   Scattered Clouds
8:35 AM 41.0 °F 38.0 °F 30.2 °F 65% 30.00 in 8.0 mi SSE 4.6 mph - N/A   Clear
8:55 AM 46.4 °F 44.3 °F 30.2 °F 53% 30.00 in 10.0 mi South 4.6 mph - N/A   Clear
9:15 AM 48.2 °F - 30.2 °F 50% 29.99 in 10.0 mi South 6.9 mph - N/A   Clear
9:55 AM 53.6 °F - 32.0 °F 44% 29.98 in 10.0 mi SSW 10.4 mph - N/A   Clear
10:15 AM 55.4 °F - 32.0 °F 41% 29.98 in 10.0 mi SSW 9.2 mph - N/A   Clear
10:35 AM 59.0 °F - 32.0 °F 36% 29.97 in 10.0 mi SSW 12.7 mph - N/A   Clear
10:55 AM 62.6 °F - 32.0 °F 32% 29.95 in 10.0 mi SW 13.8 mph - N/A   Clear
11:15 AM 64.4 °F - 32.0 °F 30% 29.95 in 10.0 mi SW 16.1 mph - N/A   Clear
11:35 AM 66.2 °F - 33.8 °F 30% 29.94 in 10.0 mi SW 13.8 mph - N/A   Clear
11:55 AM 68.0 °F - 35.6 °F 30% 29.94 in 10.0 mi SW 12.7 mph - N/A   Clear
12:15 PM 71.6 °F - 35.6 °F 27% 29.93 in 10.0 mi SW 15.0 mph - N/A   Clear
12:35 PM 71.6 °F - 35.6 °F 27% 29.92 in 10.0 mi SSW 16.1 mph - N/A   Clear
12:55 PM 73.4 °F - 35.6 °F 25% 29.91 in 10.0 mi SSW 15.0 mph - N/A   Scattered Clouds
1:15 PM 75.2 °F - 35.6 °F 24% 29.90 in 10.0 mi SSW 15.0 mph - N/A   Partly Cloudy
1:35 PM 77.0 °F - 37.4 °F 24% 29.89 in 10.0 mi SSW 17.3 mph - N/A   Partly Cloudy
1:55 PM 77.0 °F - 35.6 °F 22% 29.87 in 10.0 mi SW 16.1 mph 21.9 mph N/A   Clear
2:15 PM 78.8 °F - 35.6 °F 21% 29.86 in 10.0 mi SW 17.3 mph 23.0 mph N/A   Clear
2:35 PM 80.6 °F - 35.6 °F 20% 29.85 in 9.0 mi WSW 16.1 mph 26.5 mph N/A   Clear
2:55 PM 80.6 °F - 35.6 °F 20% 29.85 in 9.0 mi WSW 13.8 mph 27.6 mph N/A   Clear
3:15 PM 80.6 °F - 35.6 °F 20% 29.84 in 9.0 mi WSW 12.7 mph 21.9 mph N/A   Clear
3:35 PM 80.6 °F - 37.4 °F 21% 29.84 in 9.0 mi SW 9.2 mph 19.6 mph N/A   Clear
3:55 PM 82.4 °F - 35.6 °F 19% 29.83 in 10.0 mi WNW 15.0 mph 19.6 mph N/A   Clear
4:15 PM 80.6 °F - 35.6 °F 20% 29.83 in 10.0 mi West 13.8 mph 18.4 mph N/A   Clear
4:35 PM 80.6 °F - 33.8 °F 18% 29.84 in 10.0 mi NW 12.7 mph - N/A   Clear
4:55 PM 78.8 °F - 33.8 °F 20% 29.84 in 10.0 mi NW 10.4 mph 18.4 mph N/A   Clear
5:15 PM 78.8 °F - 33.8 °F 20% 29.84 in 10.0 mi NNW 12.7 mph - N/A   Clear
5:35 PM 77.0 °F - 33.8 °F 21% 29.85 in 10.0 mi NNW 13.8 mph - N/A   Clear
5:55 PM 75.2 °F - 35.6 °F 24% 29.85 in 10.0 mi North 11.5 mph - N/A   Clear
6:15 PM 73.4 °F - 33.8 °F 23% 29.86 in 10.0 mi North 8.1 mph - N/A   Clear
6:35 PM 68.0 °F - 33.8 °F 28% 29.86 in 9.0 mi North 6.9 mph - N/A   Clear
6:55 PM 64.4 °F - 32.0 °F 30% 29.87 in 8.0 mi NNW 8.1 mph - N/A   Clear
7:15 PM 62.6 °F - 32.0 °F 32% 29.88 in 10.0 mi NNW 9.2 mph - N/A   Clear
7:35 PM 64.4 °F - 33.8 °F 32% 29.89 in 10.0 mi North 11.5 mph - N/A   Clear
7:55 PM 64.4 °F - 35.6 °F 34% 29.90 in 10.0 mi North 10.4 mph - N/A   Scattered Clouds
8:35 PM 62.6 °F - 37.4 °F 39% 29.91 in 4.0 mi NE 13.8 mph - N/A   Haze
8:55 PM 62.6 °F - 37.4 °F 39% 29.91 in 10.0 mi NE 13.8 mph 17.3 mph N/A   Mostly Cloudy
9:15 PM 59.0 °F - 37.4 °F 45% 29.92 in 10.0 mi NE 13.8 mph - N/A   Partly Cloudy
9:55 PM 55.4 °F - 37.4 °F 51% 29.95 in 7.0 mi NNE 15.0 mph 19.6 mph N/A   Clear
10:35 PM 53.6 °F - 37.4 °F 54% 29.95 in 5.0 mi NNE 12.7 mph - N/A   Haze
11:15 PM 53.6 °F - 35.6 °F 51% 29.96 in 4.0 mi NNE 9.2 mph - N/A   Haze
11:35 PM 50.0 °F - 35.6 °F 58% 29.96 in 5.0 mi NNE 9.2 mph - N/A   Haze
11:55 PM 50.0 °F - 35.6 °F 58% 29.96 in 7.0 mi NNE 6.9 mph - N/A   Clear